Location: Recife
(8.0585°S, 34.8848°W)
Time: 08:53:51
(UTC-03:00)

Altair - Pass Details

Date: 23 April 2026
Orbit: 1501 x 1682 km, 47.2° (Epoch: 11 May)

Event Time Altitude Azimuth Distance (km) Brightness Sun altitude
Rises 17:27:51 0° 355° (N) 4,722 10.3 -4.2°
Reaches altitude 10° 17:32:36 10° 15° (NNE) 3,708 9.5 -5.3°
Maximum altitude 17:37:52 16° 50° (NE) 3,206 8.8 -6.6°
Drops below altitude 10° 17:43:03 10° 85° (E) 3,662 8.9 -7.9°
Enters shadow 17:43:57 - 90° (E) 3,823 8.9 -8.1°
